Location: Regensburg
(48.4565°N, 10.3217°E)
Time: 01:34:24
(UTC+02:00)

OTV 5 (USA 277) - Visible Passes

Search period start: 28 May 2018 00:00
Search period end: 07 June 2018 00:00
Orbit: 308 x 326 km, 54.5° (Epoch: 06 May)

Date Brightness Start Highest point End Pass type
(mag) Time Alt. Az. Time Alt. Az. Time Alt. Az.
01 Jun ? 04:02:04 11° S 04:03:46 17° SE 04:05:38 10° E visible
02 Jun ? 04:15:49 13° SSW 04:17:58 36° SE 04:20:34 10° ENE visible
03 Jun ? 02:58:40 11° SE 02:58:40 11° SE 02:59:16 10° ESE visible
03 Jun ? 04:29:34 10° WSW 04:32:19 86° SSE 04:35:05 10° ENE visible
04 Jun ? 03:12:19 24° SSE 03:12:36 24° SE 03:14:55 10° E visible
05 Jun ? 03:25:55 33° SSW 03:26:52 56° SE 03:29:36 10° ENE visible
06 Jun ? 02:08:37 12° E 02:08:37 12° E 02:09:04 10° E visible
06 Jun ? 03:39:27 19° WSW 03:41:16 66° NNW 03:44:02 10° ENE visible
